Location: Kearney
(40.6990°N, 99.0810°W)
Time: 15:56:15
(UTC-06:00)

EO 1 Del DPAF - Pass Details

Date: 18 December 2017
Orbit: 524 x 528 km, 98.1° (Epoch: 22 January)

Event Time Altitude Azimuth Distance (km) Brightness Sun altitude
Exits shadow 18:45:30 25° 23° (NNE) 1,104 4.5 -17.2°
Maximum altitude 18:47:39 69° 101° (ESE) 566 3.1 -17.6°
Drops below altitude 10° 18:51:26 10° 186° (S) 1,759 6.1 -18.3°
Sets 18:53:32 0° 189° (S) 2,643 7.1 -18.7°
